CQ0XBF-11 Chamusca PT current weather conditions

sailwx.info

Wind from 030 at 1 knots gusting 6

Air temperature 15.6° C
Dewpoint 11.1° C

Last reported at 2016-May-30 21:49 UTC.
Time now 2016-May-30 22:13 UTC

Location: N 39°21' W 008°28'.
View on Google Maps.

See reports from other nearby stations

  
Tides and Currents Weather Stations Pressure Air Temp Water Temp Dewpoint Dewpoint Depression Visibility Wind Speed Wind Dir Waves Ship Positions
date/time (UTC)wind fromknots sea level pressurealtimeterstation pressurevisibilityair tempwater tempwave heightnotes
2016-May-30 21:49 030 1 gusting 6 15.6
2016-May-30 21:45 315 0 gusting 5 15.6
2016-May-30 21:39 358 2 gusting 8 15.0
2016-May-30 21:35 341 0 gusting 6 15.6
2016-May-30 21:29 357 15.6
2016-May-30 21:25 333 3 gusting 6 15.6
2016-May-30 21:21 347 2 gusting 9 15.6
2016-May-30 21:15 296 2 gusting 6 15.6
2016-May-30 21:11 336 1 gusting 8 15.6
2016-May-30 21:05 344 3 gusting 6 16.1
2016-May-30 21:00 343 3 gusting 4 16.1
2016-May-30 20:54 344 16.1
2016-May-30 20:50 326 2 gusting 10 16.1
2016-May-30 20:44 327 2 gusting 9 16.1
2016-May-30 20:40 358 4 gusting 7 16.1
2016-May-30 20:34 338 3 gusting 7 16.7
2016-May-30 20:30 248 0 gusting 7 16.7
2016-May-30 20:24 313 3 gusting 7 16.7
2016-May-30 20:20 322 4 gusting 7 16.7
2016-May-30 20:14 324 3 gusting 10 16.7
2016-May-30 20:10 317 4 gusting 6 17.2
2016-May-30 20:06 334 3 gusting 6 17.2
2016-May-30 20:00 307 1 gusting 6 17.2
2016-May-30 19:56 347 2 gusting 9 17.2
2016-May-30 19:50 333 5 gusting 11 17.2
2016-May-30 19:46 316 3 gusting 9 17.8
2016-May-30 19:39 337 6 gusting 11 17.8
2016-May-30 19:35 313 5 gusting 13 17.8
2016-May-30 19:29 348 6 gusting 10 18.3
2016-May-30 19:25 320 4 gusting 10 18.3
2016-May-30 19:19 306 5 gusting 13 18.3
2016-May-30 19:15 291 5 gusting 10 18.9
2016-May-30 19:09 331 4 gusting 11 18.9
2016-May-30 19:05 348 6 gusting 12 19.4
2016-May-30 18:59 330 7 gusting 11 19.4
2016-May-30 18:55 292 6 gusting 10 19.4
2016-May-30 18:49 319 5 gusting 10 20.0
2016-May-30 18:45 337 3 gusting 11 20.0
2016-May-30 18:41 312 7 gusting 11 20.0
2016-May-30 18:26 340 6 gusting 11 20.6
2016-May-30 18:22 345 5 gusting 15 20.6
2016-May-30 18:20 327 6 gusting 15 20.6
2016-May-30 18:14 340 7 gusting 11 20.6
2016-May-30 18:10 323 5 gusting 13 21.1
2016-May-30 18:04 327 3 gusting 13 21.1
2016-May-30 18:00 341 7 gusting 13 21.7
2016-May-30 17:54 298 10 gusting 14 21.1
2016-May-30 17:50 316 6 gusting 14 21.7
2016-May-30 17:44 025 6 gusting 12 21.1
2016-May-30 17:40 320 6 gusting 12 21.7
2016-May-30 17:36 331 7 gusting 21 21.7
2016-May-30 17:30 302 5 gusting 12 22.2
2016-May-30 17:26 354 4 gusting 14 22.2
2016-May-30 17:20 315 6 gusting 19 22.2
2016-May-30 17:16 323 6 gusting 12 22.8
2016-May-30 17:10 300 6 gusting 11 23.3
2016-May-30 17:05 330 5 gusting 8 23.3
2016-May-30 16:59 351 3 gusting 10 23.3
2016-May-30 16:55 316 5 gusting 12 23.3
2016-May-30 16:49 313 7 gusting 13 22.8
2016-May-30 16:45 340 6 gusting 10 22.8
2016-May-30 16:39 336 6 gusting 13 23.3
2016-May-30 16:35 293 11 gusting 7 24.4
2016-May-30 16:29 331 2 gusting 8 23.9
2016-May-30 16:25 320 3 gusting 9 23.9
2016-May-30 16:19 326 6 gusting 9 23.9
2016-May-30 16:15 298 5 gusting 10 23.9
2016-May-30 16:11 305 6 gusting 9 23.9
2016-May-30 16:05 317 3 gusting 8 24.4
2016-May-30 16:01 316 4 gusting 9 24.4
2016-May-30 15:55 317 3 gusting 8 24.4
2016-May-30 15:50 307 7 gusting 8 24.4
2016-May-30 15:44 307 5 gusting 6 24.4
2016-May-30 15:40 322 6 gusting 9 23.9
2016-May-30 15:34 296 6 gusting 11 23.9
2016-May-30 15:30 317 4 gusting 11 23.3
2016-May-30 15:24 026 2 gusting 11 23.3
2016-May-30 15:20 309 4 gusting 6 23.3
2016-May-30 15:14 341 2 gusting 11 23.9
2016-May-30 15:10 344 6 gusting 6 24.4
2016-May-30 15:04 336 3 gusting 6 25.0
2016-May-30 15:00 317 3 gusting 9 24.4
2016-May-30 14:56 315 6 gusting 8 25.0
2016-May-30 14:50 305 6 gusting 10 24.4
2016-May-30 14:46 331 5 gusting 6 23.9
2016-May-30 14:40 309 3 gusting 7 23.3
2016-May-30 14:36 327 1 gusting 6 24.4
2016-May-30 14:29 330 2 gusting 6 25.6
2016-May-30 14:25 333 2 gusting 8 24.4
2016-May-30 14:19 330 1 gusting 6 23.9
2016-May-30 14:15 358 3 gusting 3 23.9
2016-May-30 14:09 310 0 gusting 8 23.3
2016-May-30 14:05 337 5 gusting 11 23.3
2016-May-30 13:59 24.4
2016-May-30 13:55 112 0 gusting 12 23.9
2016-May-30 13:49 307 12 gusting 9 23.9
2016-May-30 13:45 015 0 gusting 7 23.9
2016-May-30 13:39 322 2 gusting 5 23.3
2016-May-30 13:35 334 1 gusting 7 22.8
2016-May-30 13:31 305 2 gusting 6 22.8
2016-May-30 13:25 344 3 gusting 7 23.3
2016-May-30 13:21 340 1 gusting 5 22.8
2016-May-30 13:14 330 1 gusting 7 22.8
2016-May-30 13:10 326 4 gusting 5 22.8
2016-May-30 13:04 329 23.3
2016-May-30 13:00 340 22.8
2016-May-30 12:54 338 23.3
2016-May-30 12:50 299 4 gusting 5 23.9
2016-May-30 12:44 272 3 gusting 6 23.3
2016-May-30 12:40 358 4 gusting 7 22.8
2016-May-30 12:34 306 4 gusting 10 21.1
2016-May-30 12:30 282 8 gusting 6 21.7
2016-May-30 12:24 312 5 gusting 9 21.7
2016-May-30 12:20 307 5 gusting 9 22.2
2016-May-30 12:16 302 4 gusting 6 22.8
2016-May-30 12:10 299 3 gusting 6 23.9
2016-May-30 12:06 240 0 gusting 8 23.9
2016-May-30 11:59 315 2 gusting 7 22.8
2016-May-30 11:55 296 3 gusting 6 22.8
2016-May-30 11:49 233 6 gusting 6 22.8
2016-May-30 11:45 286 6 gusting 5 22.2
2016-May-30 11:39 288 2 gusting 4 21.1
2016-May-30 11:35 305 21.7
2016-May-30 11:29 293 3 gusting 4 21.7
2016-May-30 11:25 253 22.2
2016-May-30 11:19 337 21.7
2016-May-30 11:15 296 21.1
2016-May-30 11:09 306 21.1
2016-May-30 11:05 309 5 gusting 6 21.1
2016-May-30 11:01 333 0 gusting 6 21.7
2016-May-30 10:55 293 3 gusting 6 21.7
2016-May-30 10:51 330 3 gusting 2 22.8
2016-May-30 10:45 326 22.8
2016-May-30 10:40 317 0 gusting 5 22.2
2016-May-30 10:32 275 22.2
2016-May-30 10:30 317 22.2
2016-May-30 10:24 257 1 gusting 2 22.2
2016-May-30 10:20 198 21.7
2016-May-30 10:14 317 0 gusting 3 21.1
2016-May-30 10:10 015 0 gusting 4 20.6
2016-May-30 10:04 307 1 gusting 5 20.0
2016-May-30 10:00 329 3 gusting 7 19.4
2016-May-30 09:54 338 18.9
2016-May-30 09:50 306 2 gusting 7 18.9
2016-May-30 09:44 351 2 gusting 6 19.4
2016-May-30 09:40 326 19.4
2016-May-30 09:36 277 0 gusting 6 18.9
2016-May-30 09:30 300 2 gusting 6 18.3
2016-May-30 09:26 147 18.3
2016-May-30 09:19 340 3 gusting 4 18.9
2016-May-30 09:15 302 4 gusting 4 18.9
2016-May-30 09:09 333 2 gusting 5 18.9
2016-May-30 09:05 250 0 gusting 3 18.9
2016-May-30 08:59 305 3 gusting 1 18.3
2016-May-30 08:55 282 18.3
2016-May-30 08:49 248 17.8
2016-May-30 08:45 285 3 gusting 2 17.8
2016-May-30 08:39 319 0 gusting 2 17.8
2016-May-30 08:35 303 17.8
2016-May-30 08:31 310 0 gusting 3 17.8
2016-May-30 08:25 315 2 gusting 1 18.3
2016-May-30 08:21 310 18.3
2016-May-30 08:15 292 18.9
2016-May-30 08:11 257 18.9
2016-May-30 08:04 268 18.9
2016-May-30 08:00 268 18.9
2016-May-30 07:54 253 0 gusting 0 18.9
2016-May-30 07:50 277 19.4
2016-May-30 07:44 246 19.4
2016-May-30 07:40 246 19.4
2016-May-30 07:34 246 19.4
2016-May-30 07:30 246 19.4
2016-May-30 07:24 246 20.0
2016-May-30 07:20 246 20.0
2016-May-30 07:16 205 20.0
2016-May-30 07:10 205 19.4
2016-May-30 07:06 205 19.4
2016-May-30 07:00 168 19.4
2016-May-30 06:56 168 19.4
2016-May-30 06:49 168 18.3
2016-May-30 06:45 168 17.2
2016-May-30 06:39 168 15.6
2016-May-30 06:35 168 14.4
2016-May-30 06:29 168 13.3
2016-May-30 06:25 168 13.3
2016-May-30 06:19 168 13.3
2016-May-30 06:15 168 12.8
2016-May-30 06:09 223 12.8
2016-May-30 06:05 223 12.8
2016-May-30 05:59 223 12.8
2016-May-30 05:55 223 12.8
2016-May-30 05:51 223 12.8
2016-May-30 05:45 223 12.8
2016-May-30 05:41 223 12.8
2016-May-30 05:35 223 12.8
2016-May-30 05:30 223 12.2
2016-May-30 05:24 222 12.2
2016-May-30 05:20 219 0 gusting 0 12.8
2016-May-30 05:14 188 12.8
2016-May-30 05:10 188 12.8
2016-May-30 05:04 143 12.8
2016-May-30 05:00 316 12.8
2016-May-30 04:54 316 12.8
2016-May-30 04:50 168 12.8
2016-May-30 04:44 168 12.8
2016-May-30 04:40 168 12.8
2016-May-30 04:36 168 12.8
2016-May-30 04:30 127 12.8
2016-May-30 04:26 127 12.8
2016-May-30 04:20 127 12.8
2016-May-30 04:15 127 12.8
2016-May-30 04:09 127 13.3
2016-May-30 04:05 127 13.3
2016-May-30 03:59 127 13.3
2016-May-30 03:55 196 13.3
2016-May-30 03:49 196 13.3
2016-May-30 03:45 196 13.3
2016-May-30 03:39 122 13.3
2016-May-30 03:35 122 13.3
2016-May-30 03:29 122 13.3
2016-May-30 03:25 122 13.3
2016-May-30 03:21 122 13.3
2016-May-30 03:15 122 13.3
2016-May-30 03:11 122 13.3
2016-May-30 03:05 122 13.3
2016-May-30 03:01 122 13.3
2016-May-30 02:54 122 13.3
2016-May-30 02:50 122 13.3
2016-May-30 02:44 122 13.3
2016-May-30 02:40 122 13.3
2016-May-30 02:34 122 13.3
2016-May-30 02:30 122 13.9
2016-May-30 02:24 122 13.9
2016-May-30 02:20 122 13.9
2016-May-30 02:14 122 13.9
2016-May-30 02:10 122 13.9
2016-May-30 02:04 122 13.9
2016-May-30 02:00 122 13.9
2016-May-30 01:56 122 13.9
2016-May-30 01:50 122 13.9
2016-May-30 01:46 122 13.9
2016-May-30 01:39 188 13.9
2016-May-30 01:35 188 13.9
2016-May-30 01:29 188 13.9
2016-May-30 01:25 188 13.9
2016-May-30 01:19 243 13.9
2016-May-30 01:15 250 0 gusting 2 13.9
2016-May-30 01:09 241 0 gusting 2 14.4
2016-May-30 01:05 226 2 gusting 4 14.4
2016-May-30 00:59 180 14.4
2016-May-30 00:55 254 1 gusting 1 14.4
2016-May-30 00:49 247 14.4
2016-May-30 00:45 307 14.4
2016-May-30 00:41 307 14.4
2016-May-30 00:35 307 15.0
2016-May-30 00:31 307 15.0
2016-May-30 00:24 307 15.0
2016-May-30 00:20 307 15.0
2016-May-30 00:14 307 15.0
2016-May-30 00:10 307 15.0
2016-May-30 00:04 307 15.0
2016-May-30 00:00 307 15.0
2016-May-29 23:54 307 15.0
2016-May-29 23:50 307 15.0
2016-May-29 23:44 285 15.0
2016-May-29 23:40 237 15.0
2016-May-29 23:34 237 15.6
2016-May-29 23:30 237 15.6
2016-May-29 23:26 237 15.6
2016-May-29 23:20 237 15.6
2016-May-29 23:16 237 15.6
2016-May-29 23:10 237 15.6
2016-May-29 23:05 237 15.6
2016-May-29 22:59 237 16.1
2016-May-29 22:55 237 15.6
2016-May-29 22:47 237 16.1
2016-May-29 22:45 237 16.1
2016-May-29 22:39 310 16.1
2016-May-29 22:35 310 16.1
2016-May-29 22:29 310 16.1
2016-May-29 22:25 310 16.1
2016-May-29 22:19 310 16.1
2016-May-29 22:15 310 16.1
2016-May-29 22:11 310 16.1
2016-May-29 22:05 337 16.1
2016-May-29 22:01 337 16.1
2016-May-29 21:55 337 16.1
2016-May-29 21:51 337 16.1
2016-May-29 21:44 237 16.1
2016-May-29 21:40 237 16.1
2016-May-29 21:34 305 16.1
2016-May-29 21:30 270 0 gusting 2 16.1
2016-May-29 21:24 302 16.1
2016-May-29 21:20 310 3 gusting 4 16.1
2016-May-29 21:14 316 1 gusting 5 16.1
2016-May-29 21:10 278 3 gusting 5 16.1
2016-May-29 21:04 293 16.1
2016-May-29 21:00 326 1 gusting 4 16.1
2016-May-29 20:56 317 2 gusting 5 16.1
2016-May-29 20:50 302 1 gusting 2 16.1
2016-May-29 20:46 313 2 gusting 3 16.7
2016-May-29 20:40 326 1 gusting 5 16.7
2016-May-29 20:36 323 1 gusting 6 16.7
2016-May-29 20:29 284 2 gusting 5 17.2
2016-May-29 20:25 267 0 gusting 4 17.2
2016-May-29 20:19 306 2 gusting 4 17.2
2016-May-29 20:15 300 1 gusting 4 17.2
2016-May-29 20:09 298 1 gusting 5 17.2
2016-May-29 20:05 313 2 gusting 6 17.2
2016-May-29 19:59 278 4 gusting 6 17.2
2016-May-29 19:55 295 5 gusting 7 17.2
2016-May-29 19:49 312 5 gusting 6 17.8
2016-May-29 19:45 303 2 gusting 7 17.8
2016-May-29 19:39 292 4 gusting 6 17.8
2016-May-29 19:35 255 2 gusting 6 18.3
2016-May-29 19:31 306 2 gusting 6 18.3
2016-May-29 19:25 300 1 gusting 6 18.3
2016-May-29 19:21 236 0 gusting 7 18.3
2016-May-29 19:14 254 3 gusting 7 18.9
2016-May-29 19:10 285 0 gusting 8 18.9
2016-May-29 19:04 299 4 gusting 10 18.9
2016-May-29 19:00 331 5 gusting 9 19.4
2016-May-29 18:54 305 6 gusting 7 19.4
2016-May-29 18:50 315 4 gusting 12 19.4
2016-May-29 18:42 222 20.0
2016-May-29 18:40 288 2 gusting 6 19.4
2016-May-29 18:34 278 1 gusting 7 19.4
2016-May-29 18:30 291 6 gusting 10 19.4
2016-May-29 18:24 215 0 gusting 6 19.4
2016-May-29 18:20 312 4 gusting 7 19.4
2016-May-29 18:16 313 2 gusting 7 19.4
2016-May-29 18:10 232 2 gusting 6 19.4
2016-May-29 18:06 284 0 gusting 5 19.4
2016-May-29 18:00 282 2 gusting 6 19.4
2016-May-29 17:55 264 2 gusting 6 20.0
2016-May-29 17:49 303 5 gusting 6 20.0
2016-May-29 17:45 254 2 gusting 6 20.0
2016-May-29 17:39 246 3 gusting 6 20.0
2016-May-29 17:35 265 0 gusting 7 20.6
2016-May-29 17:29 279 1 gusting 5 20.6
2016-May-29 17:25 288 3 gusting 6 20.6
2016-May-29 17:19 307 1 gusting 7 20.6
2016-May-29 17:15 278 1 gusting 9 20.0
2016-May-29 17:09 291 3 gusting 9 19.4
2016-May-29 17:05 001 3 gusting 7 20.0
2016-May-29 17:01 267 3 gusting 12 20.6
2016-May-29 16:55 275 2 gusting 9 20.6
2016-May-29 16:51 289 3 gusting 8 21.1
2016-May-29 16:45 288 3 gusting 7 21.1
2016-May-29 16:40 285 7 gusting 14 21.1
2016-May-29 16:34 291 3 gusting 9 21.7
2016-May-29 16:30 205 1 gusting 8 21.1
2016-May-29 16:24 316 2 gusting 7 21.7
2016-May-29 16:20 271 4 gusting 8 21.1
2016-May-29 16:14 253 21.7
2016-May-29 16:10 248 4 gusting 6 22.2
2016-May-29 16:04 277 4 gusting 6 21.7
2016-May-29 16:00 239 2 gusting 12 21.1
2016-May-29 15:54 316 0 gusting 8 21.7
2016-May-29 15:50 303 6 gusting 8 22.2
2016-May-29 15:46 284 4 gusting 11 22.2
2016-May-29 15:40 306 4 gusting 8 22.2
2016-May-29 15:36 223 6 gusting 8 21.7
2016-May-29 15:30 302 6 gusting 10 21.7
2016-May-29 15:26 313 5 gusting 13 21.7
2016-May-29 15:19 258 3 gusting 6 22.2
2016-May-29 15:15 257 22.2
2016-May-29 15:09 354 3 gusting 9 21.7
2016-May-29 15:05 292 6 gusting 10 21.1
2016-May-29 14:59 300 6 gusting 12 20.6
2016-May-29 14:55 277 4 gusting 11 20.6
2016-May-29 14:49 309 5 gusting 10 20.0
2016-May-29 14:45 271 6 gusting 10 20.0
2016-May-29 14:39 300 0 gusting 7 21.1
2016-May-29 14:35 262 3 gusting 6 21.7
2016-May-29 14:29 306 3 gusting 9 21.1
2016-May-29 14:25 300 2 gusting 7 20.6
2016-May-29 14:21 316 3 gusting 7 20.6
2016-May-29 14:15 309 19.4
2016-May-29 14:11 310 1 gusting 8 18.9
2016-May-29 14:04 241 2 gusting 8 18.9
2016-May-29 14:00 254 3 gusting 8 18.9
2016-May-29 13:54 316 3 gusting 10 18.9
2016-May-29 13:50 313 5 gusting 7 18.9
2016-May-29 13:44 298 1 gusting 4 19.4
2016-May-29 13:40 247 1 gusting 6 20.0
2016-May-29 13:34 257 3 gusting 8 21.1
2016-May-29 13:30 306 0 gusting 5 21.7
2016-May-29 13:24 254 1 gusting 6 21.7
2016-May-29 13:20 215 3 gusting 6 21.1
2016-May-29 13:14 319 0 gusting 6 20.0
2016-May-29 13:10 278 2 gusting 6 20.0
2016-May-29 13:06 241 0 gusting 6 19.4
2016-May-29 13:00 241 1 gusting 4 18.9
2016-May-29 12:56 232 4 gusting 4 18.3
2016-May-29 12:50 219 18.3
2016-May-29 12:45 248 2 gusting 5 18.3
2016-May-29 12:39 278 3 gusting 6 18.3
2016-May-29 12:35 267 0 gusting 6 17.8
2016-May-29 12:29 225 4 gusting 5 17.8
2016-May-29 12:25 239 1 gusting 6 17.2
2016-May-29 12:19 265 1 gusting 6 17.2
2016-May-29 12:15 270 4 gusting 5 17.2
2016-May-29 12:09 268 1 gusting 6 17.2
2016-May-29 12:05 327 3 gusting 8 17.2
2016-May-29 11:59 268 3 gusting 7 17.2
2016-May-29 11:55 270 0 gusting 6 17.8
2016-May-29 11:51 282 18.3
2016-May-29 11:45 236 5 gusting 6 18.3
2016-May-29 11:41 227 5 gusting 3 18.3
2016-May-29 11:35 219 0 gusting 4 17.8
2016-May-29 11:30 217 1 gusting 3 17.8
2016-May-29 11:24 260 17.2
2016-May-29 11:20 254 0 gusting 5 16.7
2016-May-29 11:14 253 2 gusting 5 16.7
2016-May-29 11:10 279 2 gusting 5 16.7
2016-May-29 11:04 255 1 gusting 6 16.7
2016-May-29 11:00 251 1 gusting 6 16.1
2016-May-29 10:54 293 0 gusting 3 16.1
2016-May-29 10:50 275 2 gusting 4 16.1
2016-May-29 10:44 306 15.6
2016-May-29 10:40 255 0 gusting 8 15.6
2016-May-29 10:36 315 3 gusting 9 15.6
2016-May-29 10:30 274 0 gusting 11 16.1
2016-May-29 10:26 281 6 gusting 9 16.7
2016-May-29 10:20 215 17.2
2016-May-29 10:16 267 0 gusting 4 17.2
2016-May-29 10:09 209 2 gusting 5 16.7
2016-May-29 10:05 225 3 gusting 5 16.7
2016-May-29 09:59 243 1 gusting 6 16.7
2016-May-29 09:55 295 3 gusting 8 16.7
2016-May-29 09:49 286 0 gusting 6 16.7
2016-May-29 09:45 284 5 gusting 8 16.7
2016-May-29 09:39 284 0 gusting 7 16.7
2016-May-29 09:35 277 16.7
2016-May-29 09:29 291 0 gusting 4 16.7
2016-May-29 09:25 343 16.7
2016-May-29 09:19 281 2 gusting 8 16.7
2016-May-29 09:15 257 0 gusting 6 16.7
2016-May-29 09:11 198 4 gusting 7 16.7
2016-May-29 09:05 222 7 gusting 11 16.1
2016-May-29 09:01 243 5 gusting 5 16.7
2016-May-29 08:54 239 0 gusting 6 16.7
2016-May-29 08:50 265 2 gusting 6 16.7
2016-May-29 08:44 247 3 gusting 3 16.7
2016-May-29 08:40 239 2 gusting 6 16.1
2016-May-29 08:34 275 3 gusting 6 16.7
2016-May-29 08:30 295 1 gusting 6 17.2
2016-May-29 08:24 272 1 gusting 6 17.2
2016-May-29 08:20 284 2 gusting 7 17.2
2016-May-29 08:14 244 3 gusting 8 16.7
2016-May-29 08:10 217 3 gusting 6 16.7
2016-May-29 08:04 241 3 gusting 8 16.7
2016-May-29 08:00 251 1 gusting 7 16.7
2016-May-29 07:56 185 0 gusting 8 16.1
2016-May-29 07:50 254 1 gusting 6 16.1
2016-May-29 07:46 215 3 gusting 6 16.1
2016-May-29 07:40 213 3 gusting 5 16.1
2016-May-29 07:35 248 1 gusting 6 15.0
2016-May-29 07:29 220 2 gusting 5 14.4
2016-May-29 07:25 192 2 gusting 6 14.4
2016-May-29 07:19 222 2 gusting 6 14.4
2016-May-29 07:15 182 3 gusting 5 14.4
2016-May-29 07:09 217 3 gusting 6 13.9
2016-May-29 07:05 260 0 gusting 6 14.4
2016-May-29 06:59 225 3 gusting 6 13.9
2016-May-29 06:55 233 2 gusting 6 13.9
2016-May-29 06:49 199 2 gusting 6 13.9
2016-May-29 06:45 194 2 gusting 6 13.9
2016-May-29 06:41 205 4 gusting 6 13.9
2016-May-29 06:35 171 3 gusting 6 13.9
2016-May-29 06:31 203 1 gusting 6 13.9
2016-May-29 06:25 174 2 gusting 5 13.9
2016-May-29 06:20 216 2 gusting 5 13.9
2016-May-29 06:14 191 2 gusting 5 13.9
2016-May-29 06:10 240 1 gusting 4 13.3
2016-May-29 06:04 203 3 gusting 6 13.3
2016-May-29 06:00 202 1 gusting 5 13.3
2016-May-29 05:54 210 2 gusting 4 13.3
2016-May-29 05:50 229 2 gusting 3 13.3
2016-May-29 05:44 205 1 gusting 4 13.3
2016-May-29 05:40 203 2 gusting 3 13.3
2016-May-29 05:34 172 0 gusting 4 13.3
2016-May-29 05:30 223 0 gusting 5 13.3
2016-May-29 05:26 212 2 gusting 5 13.3
2016-May-29 05:20 191 1 gusting 4 13.3
2016-May-29 05:16 230 3 gusting 5 13.3
2016-May-29 05:10 206 2 gusting 5 13.3
2016-May-29 05:06 226 3 gusting 6 13.3
2016-May-29 04:59 213 5 gusting 6 13.3
2016-May-29 04:55 196 4 gusting 5 13.3
2016-May-29 04:49 212 4 gusting 6 13.3
2016-May-29 04:45 236 1 gusting 6 13.3
2016-May-29 04:37 209 3 gusting 6 13.3
2016-May-29 04:35 201 3 gusting 6 13.3
2016-May-29 04:29 202 1 gusting 6 13.3
2016-May-29 04:25 198 1 gusting 4 13.3
2016-May-29 04:19 234 3 gusting 6 13.9
2016-May-29 04:15 230 5 gusting 7 13.9
2016-May-29 04:11 223 4 gusting 7 13.9
2016-May-29 04:05 230 1 gusting 7 13.9
2016-May-29 04:01 261 2 gusting 6 13.9
2016-May-29 03:55 258 1 gusting 6 13.9
2016-May-29 03:51 251 0 gusting 6 13.9
2016-May-29 03:44 243 6 gusting 7 13.9
2016-May-29 03:40 209 2 gusting 8 13.9
2016-May-29 03:34 254 6 gusting 7 13.9
2016-May-29 03:30 192 4 gusting 8 13.9
2016-May-29 03:24 229 4 gusting 6 13.9
2016-May-29 03:20 227 6 gusting 6 13.9
2016-May-29 03:14 192 2 gusting 6 13.9
2016-May-29 03:10 229 5 gusting 6 13.9
2016-May-29 03:04 195 3 gusting 7 13.9
2016-May-29 03:00 236 2 gusting 7 14.4
2016-May-29 02:54 241 3 gusting 7 14.4
2016-May-29 02:50 240 3 gusting 7 14.4
2016-May-29 02:44 230 2 gusting 8 14.4
2016-May-29 02:40 170 1 gusting 8 14.4
2016-May-29 02:36 215 1 gusting 8 14.4
2016-May-29 02:29 247 3 gusting 7 14.4
2016-May-29 02:25 225 4 gusting 8 14.4
2016-May-29 02:19 199 4 gusting 9 14.4
2016-May-29 02:15 232 3 gusting 5 14.4
2016-May-29 02:09 237 0 gusting 6 14.4
2016-May-29 02:05 195 3 gusting 8 14.4
2016-May-29 01:59 241 2 gusting 6 14.4
2016-May-29 01:55 199 3 gusting 7 14.4
2016-May-29 01:49 216 5 gusting 7 14.4
2016-May-29 01:45 250 3 gusting 7 14.4
2016-May-29 01:39 226 4 gusting 7 14.4
2016-May-29 01:35 230 6 gusting 7 14.4
2016-May-29 01:31 216 4 gusting 7 14.4
2016-May-29 01:25 240 4 gusting 7 14.4
2016-May-29 01:21 220 2 gusting 7 14.4
2016-May-29 01:15 210 5 gusting 6 14.4
2016-May-29 01:10 189 5 gusting 7 14.4
2016-May-29 01:04 209 2 gusting 9 14.4
2016-May-29 01:00 163 2 gusting 6 14.4
2016-May-29 00:54 257 3 gusting 8 14.4
2016-May-29 00:50 209 5 gusting 8 14.4
2016-May-29 00:44 203 5 gusting 8 14.4
2016-May-29 00:40 239 0 gusting 9 14.4
2016-May-29 00:34 215 6 gusting 8 14.4
2016-May-29 00:30 225 7 gusting 9 15.0
2016-May-29 00:24 225 7 gusting 8 15.0
2016-May-29 00:20 208 5 gusting 7 15.0
2016-May-29 00:16 219 6 gusting 7 15.0
2016-May-29 00:10 209 3 gusting 7 15.0
2016-May-29 00:06 205 5 gusting 7 15.0
2016-May-29 00:00 206 3 gusting 7 15.0
2016-May-28 23:56 160 2 gusting 6 15.0
2016-May-28 23:49 220 2 gusting 6 14.4
2016-May-28 23:45 191 4 gusting 6 14.4
2016-May-28 23:39 199 3 gusting 6 14.4
2016-May-28 23:35 217 4 gusting 6 15.0
2016-May-28 23:29 209 4 gusting 6 15.0
2016-May-28 23:25 216 2 gusting 6 15.0
2016-May-28 23:19 227 6 gusting 6 15.0
2016-May-28 23:15 220 6 gusting 6 14.4
2016-May-28 23:09 212 5 gusting 7 15.0
2016-May-28 23:05 233 2 gusting 6 15.0
2016-May-28 23:01 240 3 gusting 6 15.0
2016-May-28 22:55 232 4 gusting 6 15.0
2016-May-28 22:51 209 3 gusting 7 15.0
2016-May-28 22:45 236 5 gusting 6 15.0
2016-May-28 22:41 244 3 gusting 8 15.0
2016-May-28 22:34 237 7 gusting 6 15.0
2016-May-28 22:30 244 1 gusting 7 15.0
2016-May-28 22:24 241 2 gusting 8 15.0
2016-May-28 22:20 260 2 gusting 8 15.0
2016-May-28 22:14 254 3 gusting 8 15.0
2016-May-28 22:10 251 3 gusting 7 15.0
2016-May-28 22:04 272 4 gusting 10 15.0
2016-May-28 22:00 232 6 gusting 9 15.0